[[{"header":{"parameterUnit":"m.s-1","parameterCategory":1,"la1":30.2991,"la2":30.254,"lo1":-89.0895,"lo2":-89.0444,"dy":0.0017,"dx":0.0017,"nx":28,"ny":28,"refTime":"2025-03-01T03:00:00:Z","depth":0,"parameterNumber":2,"parameterNumberName":"U-component_of_WINDS"},"data":[0,0,0,0,0,0,0,0,0,0,0,0,0,0,0,0,0,0,0,0,0,0,0,0,0,0,0,0,0,0,0,0,0,0,0,0,0,0,0,0,0,0,0,0,0,0,0,0,0,0,0,0,0,0,0,0,0,0,0.5177,0.5178,0,0.5264,0.5265,0.5266,0.5311,0.5311,0.5311,0.5311,0.5402,0.5405,0.5407,0,0,0,0,0,0,0,0,0,0,0,0,0,0.505,0.5052,0.5177,0.5178,0.5179,0.5264,0.5265,0.5266,0.5311,0.5311,0.5311,0.5311,0.5401,0.5404,0.5407,0,0,0,0,0,0,0,0,0,0,0,0,0,0.5118,0.5053,0.5177,0.5212,0.5216,0.5264,0.5265,0.5267,0.5311,0.5311,0.5311,0.5311,0.5401,0.5404,0.5407,0.5428,0,0,0.5418,0.542,0,0,0,0,0,0,0,0,0.5114,0.5122,0.5205,0.5209,0.5214,0.5277,0.5254,0.5321,0.5311,0.5275,0.5311,0.5311,0.5361,0.5367,0.5384,0.5432,0.5436,0.5419,0.5421,0.5422,0.5423,0,0,0,0,0,0,0,0.5109,0.5119,0.5212,0.5207,0.5212,0.5223,0.5233,0.5267,0.5316,0.5278,0.5282,0.5291,0.5363,0.538,0.5386,0.5438,0.5419,0.5422,0.5424,0.5425,0.5506,0.5506,0,0,0,0,0,0,0.5099,0.5115,0.5209,0.5214,0.5163,0.5225,0.5236,0.5257,0.5316,0.5325,0.5291,0.5293,0.5374,0.5382,0.5389,0.5417,0.5422,0.5426,0.5428,0.5506,0.5506,0.5506,0,0,0,0,0,0,0.5096,0.5107,0.5205,0.5165,0.5179,0.5227,0.525,0.5258,0.5276,0.5326,0.5335,0.5299,0.5374,0.5384,0.5418,0.5421,0.5427,0.5431,0.5506,0.5506,0.5506,0.5472,0,0,0,0,0,0,0.5092,0.5105,0.5114,0.5165,0.5181,0.5232,0.525,0.526,0.5281,0.5285,0.5336,0.5345,0.5375,0.5412,0.5421,0.5426,0.5433,0.5506,0.5506,0.5506,0.5473,0.5471,0.5469,0,0,0,0,0,0.5087,0.5101,0.5114,0.5125,0.5192,0.5232,0.5241,0.5275,0.5281,0.529,0.5322,0.5343,0.5419,0.5415,0.5426,0.5431,0.5506,0.5506,0.5506,0.5474,0.5472,0.5469,0,0,0,0,0,0,0.5049,0.5108,0.5123,0.5154,0.5187,0.5239,0.5252,0.5271,0.5304,0.5306,0.5347,0.5359,0.5388,0.5413,0.5408,0.5454,0.5465,0.5467,0.5437,0.5434,0.5432,0.5426,0.5436,0,0,0,0,0,0.5044,0.5072,0.5122,0.5144,0.516,0.5203,0.5221,0.5245,0.5281,0.5296,0.533,0.5365,0.5397,0.5417,0.5449,0.5477,0.5489,0.5486,0.5484,0.5482,0.5483,0.5499,0.5499,0.5507,0.5507,0.5507,0,0,0.5035,0.5071,0.5085,0.5138,0.5166,0.5193,0.5214,0.5243,0.5263,0.53,0.5334,0.536,0.5402,0.5432,0.5447,0.5454,0.5483,0.5482,0.548,0.5483,0.5499,0.5498,0.5498,0.5507,0.5507,0.5507,0,0,0.5032,0.5061,0.5083,0.5111,0.5153,0.5181,0.5186,0.5235,0.5254,0.5288,0.5316,0.5341,0.5394,0.5423,0.5444,0.5449,0.547,0.5459,0.5448,0.5463,0.5462,0.5462,0.5464,0.5464,0.546,0.546,0.546,0,0.5015,0.5057,0.5092,0.5118,0.514,0.5173,0.5195,0.5221,0.5272,0.5286,0.5293,0.536,0.5391,0.5428,0.5429,0.5445,0.5452,0.5453,0.546,0.546,0.546,0.5462,0.5462,0.5458,0.5458,0.5459,0.5459,0,0.5033,0.5062,0.5074,0.5122,0.5145,0.5169,0.5208,0.5227,0.5248,0.5275,0.5308,0.5346,0.5385,0.5396,0.5417,0.5436,0.5438,0.5452,0.5463,0.5457,0.5459,0.546,0.5456,0.5456,0.5457,0.5457,0,0,0.501,0.5075,0.5079,0.5101,0.515,0.5172,0.5197,0.5235,0.5251,0.5285,0.5307,0.535,0.5363,0.5387,0.5411,0.5424,0.5425,0.5436,0.5437,0.5432,0.5448,0.5437,0.5438,0.5439,0.5439,0.5439,0.5444,0,0.5013,0.506,0.5092,0.5126,0.5152,0.5184,0.5205,0.5238,0.5263,0.5289,0.5318,0.5348,0.5362,0.5377,0.5391,0.5422,0.5429,0.5422,0.546,0.5461,0.5448,0.5439,0.5429,0.5431,0.5445,0.5445,0.5446,0,0.5024,0.5056,0.5092,0.5137,0.5149,0.5168,0.5205,0.523,0.5267,0.5284,0.531,0.5335,0.5362,0.5371,0.5409,0.5404,0.5421,0.5438,0.5439,0.5444,0.5453,0.5444,0.5433,0.5433,0.5448,0.5447,0.5447,0,0.5003,0.5055,0.5083,0.5101,0.5154,0.5166,0.5189,0.5226,0.5246,0.5278,0.5292,0.5327,0.5346,0.5372,0.5405,0.5409,0.544,0.5452,0.5456,0.5455,0.5462,0.5461,0.5453,0.5472,0.5472,0.5472,0.5472,0,0.5004,0.5025,0.5074,0.5092,0.5116,0.5152,0.5175,0.52,0.5232,0.5255,0.5284,0.5305,0.5347,0.5373,0.5399,0.5427,0.5435,0.545,0.5457,0.5448,0.5446,0.546,0.5461,0.5472,0.5472,0.5472,0.5472,0,0.4985,0.5019,0.5052,0.5099,0.5111,0.5127,0.5167,0.5185,0.5211,0.524,0.5248,0.529,0.5322,0.5357,0.5401,0.5418,0.5444,0.5454,0.5432,0.5435,0.5437,0.5436,0.5439,0.5441,0.5458,0.5458,0.5457,0,0.4984,0.5,0.5049,0.5065,0.5087,0.5114,0.5135,0.517,0.5191,0.5233,0.5246,0.5279,0.5308,0.5357,0.5392,0.5425,0.5436,0.5434,0.5441,0.5431,0.5435,0.5434,0.5436,0.5432,0.5432,0.5432,0.5431,0,0.4977,0.4993,0.5021,0.5055,0.5078,0.5107,0.5136,0.5149,0.519,0.5211,0.5243,0.5266,0.5309,0.5342,0.538,0.5403,0.5424,0.5429,0.5432,0.5422,0.5409,0.5416,0.5426,0.5429,0.5429,0.5429,0.5429,0.543,0.4967,0.4983,0.5019,0.5049,0.5075,0.5102,0.512,0.5149,0.5176,0.5214,0.5233,0.5265,0.5301,0.5353,0.5375,0.5401,0.5407,0.5411,0.5412,0.5413,0.541,0.5404,0.5408,0.5408,0.5408,0.5408,0.5408,0,0.4962,0.4986,0.5014,0.5054,0.5077,0.5094,0.5127,0.5146,0.5173,0.5204,0.5231,0.5268,0.53,0.5336,0.537,0.5383,0.5393,0.5391,0.539,0.5395,0.5402,0.5396,0.5382,0.5382,0.5382,0.5382,0.5382,0.5382,0.4962,0.499,0.5009,0.5049,0.5074,0.5105,0.5122,0.5147,0.5171,0.5211,0.5237,0.526,0.5293,0.5329,0.5358,0.5368,0.5379,0.5374,0.5386,0.5392,0.5395,0.5397,0.5391,0.5376,0.5376,0.5377,0.5377,0.5377]},{"header":{"parameterUnit":"m.s-1","parameterCategory":1,"la1":30.2991,"la2":30.254,"lo1":-89.0895,"lo2":-89.0444,"dy":0.0017,"dx":0.0017,"nx":28,"ny":28,"refTime":"2025-03-01T03:00:00:Z","depth":0,"parameterNumber":3,"parameterNumberName":"V-component_of_WINDS"},"data":[0,0,0,0,0,0,0,0,0,0,0,0,0,0,0,0,0,0,0,0,0,0,0,0,0,0,0,0,0,0,0,0,0,0,0,0,0,0,0,0,0,0,0,0,0,0,0,0,0,0,0,0,0,0,0,0,0,0,2.2499,2.2498,0,2.2411,2.241,2.2409,2.2437,2.2439,2.2441,2.2443,2.2347,2.2343,2.2339,0,0,0,0,0,0,0,0,0,0,0,0,0,2.2688,2.2685,2.2499,2.2498,2.2497,2.2411,2.241,2.2409,2.2437,2.2439,2.2441,2.2444,2.2349,2.2344,2.2339,0,0,0,0,0,0,0,0,0,0,0,0,0,2.2604,2.2684,2.25,2.2501,2.25,2.2411,2.241,2.2408,2.2436,2.2439,2.2442,2.2445,2.2351,2.2344,2.2338,2.2241,0,0,2.2318,2.2315,0,0,0,0,0,0,0,0,2.2608,2.2597,2.2502,2.2501,2.25,2.2438,2.2442,2.2352,2.2436,2.246,2.2443,2.2446,2.2375,2.2367,2.2344,2.2236,2.2232,2.2318,2.2314,2.2311,2.2309,0,0,0,0,0,0,0,2.2614,2.2601,2.2464,2.25,2.2499,2.2505,2.2496,2.2425,2.2403,2.2458,2.246,2.245,2.2375,2.235,2.2342,2.2231,2.2318,2.2312,2.2308,2.2305,2.204,2.2037,0,0,0,0,0,0,2.2621,2.2605,2.2467,2.2462,2.2562,2.2499,2.2489,2.2455,2.2404,2.2399,2.2447,2.2451,2.236,2.2349,2.2338,2.2222,2.2311,2.2305,2.2301,2.2043,2.2039,2.2036,0,0,0,0,0,0,2.2625,2.2609,2.2471,2.2534,2.2517,2.2493,2.2454,2.2452,2.2427,2.2395,2.2391,2.2426,2.2361,2.2348,2.2265,2.2219,2.2302,2.2296,2.2047,2.2042,2.2038,2.1988,0,0,0,0,0,0,2.2631,2.261,2.2574,2.2533,2.2513,2.24,2.2451,2.2448,2.2416,2.242,2.2374,2.2369,2.2363,2.2275,2.2259,2.2212,2.2291,2.2051,2.2045,2.2039,2.1993,2.1982,2.1972,0,0,0,0,0,2.2637,2.2562,2.2572,2.2555,2.2468,2.2397,2.2386,2.2381,2.2412,2.2375,2.2355,2.2371,2.2227,2.2266,2.2249,2.2198,2.2054,2.2047,2.204,2.1998,2.1984,2.1972,0,0,0,0,0,0,2.2596,2.2557,2.2567,2.2476,2.244,2.2402,2.2355,2.2366,2.2319,2.2325,2.232,2.2309,2.2225,2.2203,2.2248,2.2102,2.2145,2.2134,2.2119,2.2106,2.2095,2.2102,2.2286,0,0,0,0,0,2.2576,2.2524,2.2492,2.2415,2.2397,2.2379,2.2348,2.2348,2.2309,2.2294,2.2268,2.2228,2.2175,2.2139,2.2087,2.1991,2.1981,2.1947,2.1937,2.1928,2.1918,2.1866,2.1851,2.2013,2.2013,2.2013,0,0,2.2535,2.2507,2.2474,2.2406,2.2378,2.2323,2.2366,2.2305,2.2264,2.2284,2.2205,2.2185,2.2141,2.2051,2.201,2.2031,2.1872,2.1919,2.1912,2.1907,2.1857,2.1842,2.1828,2.2008,2.2009,2.2009,0,0,2.2432,2.2406,2.2339,2.2311,2.2268,2.2257,2.2242,2.2202,2.219,2.2111,2.2126,2.2076,2.1983,2.1951,2.1923,2.1809,2.1821,2.1792,2.1736,2.1685,2.1672,2.1661,2.162,2.1605,2.1783,2.1783,2.1783,0,2.2385,2.2304,2.2303,2.2242,2.2211,2.2229,2.2161,2.2133,2.2075,2.2053,2.2078,2.1962,2.1934,2.1837,2.181,2.1786,2.1767,2.1797,2.1674,2.1663,2.1652,2.1613,2.1598,2.1779,2.178,2.178,2.178,0,2.2249,2.2192,2.2143,2.209,2.2054,2.1989,2.1977,2.1941,2.1944,2.193,2.185,2.1817,2.1759,2.1737,2.1738,2.164,2.1654,2.1676,2.1719,2.1634,2.1597,2.1582,2.1775,2.1776,2.1777,2.1778,0,0,2.2115,2.2064,2.2045,2.2022,2.1977,2.1932,2.1869,2.1815,2.1783,2.1743,2.1689,2.1611,2.1632,2.1599,2.1598,2.1553,2.1465,2.158,2.1579,2.156,2.1355,2.1338,2.1321,2.1474,2.1471,2.1469,2.1359,0,2.2008,2.1898,2.1896,2.1795,2.1742,2.1759,2.1704,2.167,2.1655,2.1608,2.1591,2.1536,2.1567,2.1548,2.1505,2.1485,2.1424,2.1493,2.1422,2.142,2.1432,2.1302,2.1284,2.1182,2.1344,2.1342,2.134,0,2.1868,2.1826,2.172,2.1684,2.1662,2.1612,2.1563,2.1517,2.1479,2.1472,2.1437,2.1442,2.1376,2.1422,2.133,2.1378,2.1349,2.1335,2.133,2.1323,2.1374,2.1291,2.1149,2.1134,2.1318,2.1319,2.1321,0,2.1782,2.1698,2.1624,2.1603,2.1559,2.1524,2.1504,2.1468,2.1436,2.1392,2.1371,2.132,2.1291,2.1251,2.1242,2.1276,2.1151,2.1195,2.1142,2.1142,2.1114,2.1116,2.0965,2.1096,2.1096,2.1096,2.1097,0,2.1662,2.1596,2.1585,2.1539,2.1466,2.1464,2.1391,2.1373,2.1342,2.1292,2.1303,2.1256,2.1248,2.1198,2.1191,2.1116,2.1103,2.1095,2.1093,2.1093,2.1094,2.1074,2.1081,2.1092,2.1093,2.1094,2.1095,0,2.1552,2.1542,2.1463,2.1428,2.1418,2.1366,2.1336,2.1292,2.1279,2.1216,2.1201,2.1181,2.1124,2.1112,2.1043,2.1038,2.095,2.0955,2.0963,2.0963,2.0911,2.0916,2.0741,2.0718,2.0864,2.0863,2.0862,0,2.1477,2.1427,2.1388,2.1357,2.1335,2.1284,2.1252,2.1248,2.1214,2.1167,2.1128,2.1073,2.1028,2.0936,2.0914,2.0862,2.0866,2.0809,2.0858,2.086,2.0865,2.0868,2.0863,2.0799,2.0797,2.0796,2.0795,0,2.1343,2.1341,2.1295,2.1247,2.1209,2.1171,2.1135,2.1108,2.1099,2.106,2.1003,2.0968,2.09,2.0844,2.0792,2.077,2.078,2.078,2.0765,2.0764,2.0771,2.0766,2.0937,2.0784,2.0785,2.0786,2.0786,2.0787,2.1247,2.1204,2.1171,2.112,2.1093,2.1059,2.1016,2.0999,2.0952,2.0897,2.0897,2.0834,2.0798,2.0729,2.0704,2.0654,2.0672,2.065,2.0644,2.0639,2.0634,2.0779,2.0645,2.0645,2.0645,2.0646,2.0646,0,2.1114,2.1094,2.1047,2.0997,2.0957,2.0973,2.0934,2.0899,2.0844,2.081,2.0766,2.0701,2.0647,2.0622,2.0569,2.0534,2.0537,2.052,2.0522,2.0517,2.0621,2.064,2.0518,2.0518,2.0518,2.0518,2.0518,2.0518,2.104,2.0969,2.0963,2.0877,2.0857,2.0797,2.0774,2.0742,2.0715,2.0642,2.0598,2.0583,2.0552,2.0498,2.0449,2.0443,2.0423,2.0403,2.0399,2.0497,2.051,2.0522,2.0539,2.0399,2.0398,2.0299,2.0298,2.0297]}]]